This is the latest recevied weather packets stored in our database for station/object KI6SYE. If no packets are shown the sender has not sent any weather packets the latest 10 day(s).
| Time | Temp. | Humidity | Pressure | Rain* | Wind** | Luminosity | Snow |
|---|---|---|---|---|---|---|---|
| 1788131616 | 25.56° C | 81% | 1010.4 hPa | 0 mm | - | 400 W/m² | - |
| 1788131310 | 25.56° C | 80% | 1010.5 hPa | 0 mm | - | 412 W/m² | - |
| 1788131006 | 25° C | 81% | 1010.4 hPa | 0 mm | - | 426 W/m² | - |
| 1788130700 | 25° C | 82% | 1010.6 hPa | 0 mm | - | 441 W/m² | - |
| 1788130395 | 25° C | 80% | 1010.7 hPa | 0 mm | - | 458 W/m² | - |
| 1788130095 | 25° C | 80% | 1010.7 hPa | 0 mm | - | 470 W/m² | - |
| 1788129789 | 25° C | 82% | 1010.7 hPa | 0 mm | - | 455 W/m² | - |
| 1788129486 | 25° C | 81% | 1010.8 hPa | 0 mm | - | 498 W/m² | - |
| 1788129182 | 25° C | 81% | 1010.7 hPa | 0 mm | - | 79 W/m² | - |
| 1788128881 | 25° C | 81% | 1010.8 hPa | 0 mm | - | 79 W/m² | - |
| 1788128577 | 25° C | 81% | 1011.1 hPa | 0 mm | - | 285 W/m² | - |
| 1788128272 | 25.56° C | 79% | 1011 hPa | 0 mm | - | 540 W/m² | - |
| 1788127970 | 25° C | 81% | 1011 hPa | 0 mm | - | 558 W/m² | - |
| 1788127669 | 25° C | 81% | 1011.1 hPa | 0 mm | - | 571 W/m² | - |
| 1788127368 | 24.44° C | 82% | 1011.1 hPa | 0 mm | - | 583 W/m² | - |
| 1788127067 | 25° C | 81% | 1011.3 hPa | 0 mm | - | 593 W/m² | - |
| 1788126762 | 25.56° C | 79% | 1011.2 hPa | 0 mm | - | 605 W/m² | - |
| 1788126458 | 25° C | 79% | 1011.4 hPa | 0 mm | - | 617 W/m² | - |
| 1788126157 | 25° C | 81% | 1011.2 hPa | 0 mm | - | 624 W/m² | - |
| 1788125856 | 24.44° C | 82% | 1011.6 hPa | 0 mm | - | 632 W/m² | - |
| 1788125552 | 25° C | 80% | 1011.5 hPa | 0 mm | - | 640 W/m² | - |
| 1788125248 | 25° C | 80% | 1011.6 hPa | 0 mm | - | 650 W/m² | - |
| 1788124944 | 25° C | 81% | 1011.8 hPa | 0 mm | - | 657 W/m² | - |
| 1788124643 | 25.56° C | 80% | 1011.6 hPa | 0 mm | - | 665 W/m² | - |
| 1788124342 | 25.56° C | 80% | 1011.6 hPa | 0 mm | - | 671 W/m² | - |
* Rain latest hour (hover to see other rain measurements)
** Current wind speed in m/s (hover to see current wind gust speed)